Time,TemperatureF,DewpointF,PressureIn,WindDirection,WindDirectionDegrees,WindSpeedMPH,WindSpeedGustMPH,Humidity,HourlyPrecipIn,Conditions,Clouds,dailyrainin,SoftwareType,DateUTC
2013-01-25 00:00:00,6.8,-11.0,28.51,NNW,338,14.0,18.0,43,0.00,,,0.00,meteohub,2013-01-25 05:00:00,
2013-01-25 00:01:00,6.8,-11.0,28.51,North,0,9.0,18.0,43,0.00,,,0.00,meteohub,2013-01-25 05:01:00,
2013-01-25 00:02:00,6.8,-11.0,28.51,North,0,12.0,18.0,43,0.00,,,0.00,meteohub,2013-01-25 05:02:00,
2013-01-25 00:03:00,7.0,-10.8,28.51,NW,315,12.0,18.0,43,0.00,,,0.00,meteohub,2013-01-25 05:03:00,
2013-01-25 00:08:00,7.0,-10.8,28.52,North,0,15.0,17.0,43,0.00,,,0.00,meteohub,2013-01-25 05:08:00,
2013-01-25 00:13:00,7.0,-10.8,28.51,NE,45,11.0,17.0,43,0.00,,,0.00,meteohub,2013-01-25 05:13:00,
2013-01-25 00:19:00,6.8,-11.0,28.52,North,0,17.0,17.0,43,0.00,,,0.00,meteohub,2013-01-25 05:19:00,
2013-01-25 00:24:00,7.0,-10.8,28.52,NW,315,10.0,21.0,43,0.00,,,0.00,meteohub,2013-01-25 05:24:00,
2013-01-25 00:29:00,7.0,-10.3,28.51,North,0,17.0,21.0,44,0.00,,,0.00,meteohub,2013-01-25 05:29:00,
2013-01-25 00:34:00,7.0,-10.3,28.51,North,0,16.0,21.0,44,0.00,,,0.00,meteohub,2013-01-25 05:34:00,
2013-01-25 00:39:00,6.8,-10.5,28.51,NW,315,16.0,20.0,44,0.00,,,0.00,meteohub,2013-01-25 05:39:00,
2013-01-25 00:44:00,6.8,-10.5,28.51,North,0,18.0,23.0,44,0.00,,,0.00,meteohub,2013-01-25 05:44:00,
2013-01-25 00:49:00,6.8,-10.5,28.51,NW,315,20.0,23.0,44,0.00,,,0.00,meteohub,2013-01-25 05:49:00,
2013-01-25 00:54:00,6.8,-10.5,28.51,North,0,18.0,23.0,44,0.00,,,0.00,meteohub,2013-01-25 05:54:00,
2013-01-25 00:59:00,6.6,-9.8,28.51,North,0,15.0,21.0,46,0.00,,,0.00,meteohub,2013-01-25 05:59:00,
2013-01-25 01:04:00,6.6,-9.8,28.49,NNE,23,21.0,21.0,46,0.00,,,0.00,meteohub,2013-01-25 06:04:00,
2013-01-25 01:10:00,6.6,-9.8,28.50,WNW,293,17.0,21.0,46,0.00,,,0.00,meteohub,2013-01-25 06:10:00,
2013-01-25 01:15:00,6.6,-9.8,28.50,NE,45,20.0,22.0,46,0.00,,,0.00,meteohub,2013-01-25 06:15:00,
2013-01-25 01:20:00,6.4,-9.9,28.50,NNW,338,24.0,24.0,46,0.00,,,0.00,meteohub,2013-01-25 06:20:00,
2013-01-25 01:25:00,6.4,-9.9,28.50,WNW,293,19.0,24.0,46,0.00,,,0.00,meteohub,2013-01-25 06:25:00,
2013-01-25 01:30:00,6.4,-9.9,28.50,North,0,13.0,24.0,46,0.00,,,0.00,meteohub,2013-01-25 06:30:00,
2013-01-25 01:35:00,6.3,-10.1,28.50,NW,315,15.0,22.0,46,0.00,,,0.00,meteohub,2013-01-25 06:35:00,
2013-01-25 01:40:00,6.3,-10.1,28.50,NW,315,18.0,21.0,46,0.00,,,0.00,meteohub,2013-01-25 06:40:00,
2013-01-25 01:46:00,6.3,-10.1,28.50,North,0,11.0,21.0,46,0.00,,,0.00,meteohub,2013-01-25 06:46:00,
2013-01-25 01:51:00,6.3,-10.1,28.49,NW,315,17.0,21.0,46,0.00,,,0.00,meteohub,2013-01-25 06:51:00,
2013-01-25 01:56:00,6.1,-10.3,28.49,NE,45,18.0,21.0,46,0.00,,,0.00,meteohub,2013-01-25 06:56:00,
2013-01-25 02:01:00,6.3,-10.1,28.50,North,0,24.0,24.0,46,0.00,,,0.00,meteohub,2013-01-25 07:01:00,
2013-01-25 02:06:00,6.3,-10.1,28.50,NW,315,13.0,24.0,46,0.00,,,0.00,meteohub,2013-01-25 07:06:00,
2013-01-25 02:11:00,6.1,-10.3,28.51,North,0,13.0,24.0,46,0.00,,,0.00,meteohub,2013-01-25 07:11:00,
2013-01-25 02:16:00,6.1,-10.3,28.51,NE,45,7.0,24.0,46,0.00,,,0.00,meteohub,2013-01-25 07:16:00,
2013-01-25 02:21:00,5.9,-10.5,28.52,North,0,15.0,23.0,46,0.00,,,0.00,meteohub,2013-01-25 07:21:00,
2013-01-25 02:26:00,5.9,-10.5,28.52,North,0,19.0,22.0,46,0.00,,,0.00,meteohub,2013-01-25 07:26:00,
2013-01-25 02:31:00,5.9,-10.8,28.52,NW,315,14.0,22.0,45,0.00,,,0.00,meteohub,2013-01-25 07:31:00,
2013-01-25 02:36:00,5.9,-10.8,28.52,North,0,17.0,23.0,45,0.00,,,0.00,meteohub,2013-01-25 07:36:00,
2013-01-25 02:42:00,5.7,-11.6,28.52,NW,315,9.0,23.0,44,0.00,,,0.00,meteohub,2013-01-25 07:42:00,
2013-01-25 02:47:00,5.5,-11.7,28.52,NNW,338,13.0,23.0,44,0.00,,,0.00,meteohub,2013-01-25 07:47:00,
2013-01-25 02:52:00,5.5,-11.7,28.52,NW,315,8.0,22.0,44,0.00,,,0.00,meteohub,2013-01-25 07:52:00,
2013-01-25 02:57:00,5.5,-11.7,28.52,North,0,17.0,20.0,44,0.00,,,0.00,meteohub,2013-01-25 07:57:00,
2013-01-25 03:02:00,5.4,-11.7,28.51,North,0,17.0,20.0,44,0.00,,,0.00,meteohub,2013-01-25 08:02:00,
2013-01-25 03:07:00,5.5,-11.7,28.52,NW,315,8.0,20.0,44,0.00,,,0.00,meteohub,2013-01-25 08:07:00,
2013-01-25 03:12:00,5.4,-11.7,28.51,NW,315,11.0,20.0,44,0.00,,,0.00,meteohub,2013-01-25 08:12:00,
2013-01-25 03:17:00,5.2,-11.6,28.52,North,0,8.0,20.0,45,0.00,,,0.00,meteohub,2013-01-25 08:17:00,
2013-01-25 03:22:00,5.2,-11.6,28.52,North,0,13.0,17.0,45,0.00,,,0.00,meteohub,2013-01-25 08:22:00,
2013-01-25 03:27:00,5.2,-11.6,28.52,North,0,10.0,17.0,45,0.00,,,0.00,meteohub,2013-01-25 08:27:00,
2013-01-25 03:32:00,5.2,-11.6,28.51,North,0,5.0,16.0,45,0.00,,,0.00,meteohub,2013-01-25 08:32:00,
2013-01-25 03:37:00,5.0,-11.7,28.51,NW,315,8.0,16.0,45,0.00,,,0.00,meteohub,2013-01-25 08:37:00,
2013-01-25 03:42:00,5.0,-11.7,28.51,North,0,12.0,12.0,45,0.00,,,0.00,meteohub,2013-01-25 08:42:00,
2013-01-25 03:47:00,5.0,-11.7,28.51,North,0,9.0,12.0,45,0.00,,,0.00,meteohub,2013-01-25 08:47:00,
2013-01-25 03:52:00,5.0,-11.7,28.52,NNW,338,8.0,12.0,45,0.00,,,0.00,meteohub,2013-01-25 08:52:00,
2013-01-25 03:57:00,5.0,-11.7,28.52,North,0,8.0,12.0,45,0.00,,,0.00,meteohub,2013-01-25 08:57:00,
2013-01-25 04:02:00,5.0,-11.7,28.53,NE,45,11.0,11.0,45,0.00,,,0.00,meteohub,2013-01-25 09:02:00,
2013-01-25 04:07:00,4.8,-11.4,28.52,NE,45,7.0,12.0,46,0.00,,,0.00,meteohub,2013-01-25 09:07:00,
2013-01-25 04:12:00,4.6,-11.6,28.53,North,0,4.0,12.0,46,0.00,,,0.00,meteohub,2013-01-25 09:12:00,
2013-01-25 04:17:00,4.6,-11.6,28.53,NNW,338,8.0,13.0,46,0.00,,,0.00,meteohub,2013-01-25 09:17:00,
2013-01-25 04:22:00,4.6,-11.6,28.53,NE,45,12.0,13.0,46,0.00,,,0.00,meteohub,2013-01-25 09:22:00,
2013-01-25 04:27:00,4.6,-11.6,28.53,North,0,10.0,13.0,46,0.00,,,0.00,meteohub,2013-01-25 09:27:00,
2013-01-25 04:32:00,4.5,-11.7,28.52,North,0,12.0,12.0,46,0.00,,,0.00,meteohub,2013-01-25 09:32:00,
2013-01-25 04:37:00,4.5,-11.7,28.52,North,0,5.0,12.0,46,0.00,,,0.00,meteohub,2013-01-25 09:37:00,
2013-01-25 04:42:00,4.5,-11.7,28.52,North,0,8.0,12.0,46,0.00,,,0.00,meteohub,2013-01-25 09:42:00,
2013-01-25 04:47:00,4.3,-11.6,28.52,NNW,338,10.0,12.0,47,0.00,,,0.00,meteohub,2013-01-25 09:47:00,
2013-01-25 04:52:00,4.3,-11.6,28.51,NE,45,9.0,11.0,47,0.00,,,0.00,meteohub,2013-01-25 09:52:00,
2013-01-25 04:57:00,4.1,-11.7,28.52,NNW,338,10.0,11.0,47,0.00,,,0.00,meteohub,2013-01-25 09:57:00,
2013-01-25 05:02:00,4.1,-11.7,28.52,North,0,7.0,11.0,47,0.00,,,0.00,meteohub,2013-01-25 10:02:00,
2013-01-25 05:07:00,4.1,-11.7,28.52,North,0,7.0,11.0,47,0.00,,,0.00,meteohub,2013-01-25 10:07:00,
2013-01-25 05:12:00,4.1,-11.7,28.51,North,0,5.0,10.0,47,0.00,,,0.00,meteohub,2013-01-25 10:12:00,
2013-01-25 05:17:00,4.1,-11.7,28.51,North,0,8.0,11.0,47,0.00,,,0.00,meteohub,2013-01-25 10:17:00,
2013-01-25 05:22:00,4.1,-11.7,28.51,NNE,23,4.0,11.0,47,0.00,,,0.00,meteohub,2013-01-25 10:22:00,
2013-01-25 05:27:00,3.9,-11.7,28.51,North,0,10.0,11.0,47,0.00,,,0.00,meteohub,2013-01-25 10:27:00,
2013-01-25 05:32:00,4.1,-12.1,28.51,NW,315,7.0,11.0,46,0.00,,,0.00,meteohub,2013-01-25 10:32:00,
2013-01-25 05:37:00,4.1,-12.1,28.51,North,0,10.0,11.0,46,0.00,,,0.00,meteohub,2013-01-25 10:37:00,
2013-01-25 05:42:00,4.1,-12.1,28.51,North,0,10.0,14.0,46,0.00,,,0.00,meteohub,2013-01-25 10:42:00,
2013-01-25 05:47:00,4.5,-11.7,28.51,WNW,293,11.0,14.0,46,0.00,,,0.00,meteohub,2013-01-25 10:47:00,
2013-01-25 05:52:00,4.8,-11.9,28.50,NNW,338,13.0,14.0,45,0.00,,,0.00,meteohub,2013-01-25 10:52:00,
2013-01-25 05:57:00,5.0,-12.1,28.51,North,0,11.0,15.0,44,0.00,,,0.00,meteohub,2013-01-25 10:57:00,
2013-01-25 06:02:00,5.0,-12.1,28.51,North,0,11.0,15.0,44,0.00,,,0.00,meteohub,2013-01-25 11:02:00,
2013-01-25 06:07:00,4.8,-12.3,28.51,North,0,8.0,15.0,44,0.00,,,0.00,meteohub,2013-01-25 11:07:00,
2013-01-25 06:12:00,4.8,-12.3,28.51,North,0,5.0,11.0,44,0.00,,,0.00,meteohub,2013-01-25 11:12:00,
2013-01-25 06:17:00,4.6,-12.1,28.51,North,0,9.0,12.0,45,0.00,,,0.00,meteohub,2013-01-25 11:17:00,
2013-01-25 06:22:00,4.6,-12.1,28.51,North,0,9.0,12.0,45,0.00,,,0.00,meteohub,2013-01-25 11:22:00,
2013-01-25 06:27:00,4.6,-12.1,28.51,North,0,11.0,12.0,45,0.00,,,0.00,meteohub,2013-01-25 11:27:00,
2013-01-25 06:32:00,4.6,-12.1,28.51,North,0,9.0,12.0,45,0.00,,,0.00,meteohub,2013-01-25 11:32:00,
2013-01-25 06:37:00,4.6,-12.1,28.51,North,0,6.0,12.0,45,0.00,,,0.00,meteohub,2013-01-25 11:37:00,
2013-01-25 06:42:00,4.6,-12.1,28.51,NNE,23,9.0,12.0,45,0.00,,,0.00,meteohub,2013-01-25 11:42:00,
2013-01-25 06:47:00,4.6,-12.1,28.51,North,0,9.0,12.0,45,0.00,,,0.00,meteohub,2013-01-25 11:47:00,
2013-01-25 06:52:00,4.6,-12.1,28.52,North,0,3.0,11.0,45,0.00,,,0.00,meteohub,2013-01-25 11:52:00,
2013-01-25 06:57:00,4.6,-12.1,28.52,North,0,8.0,11.0,45,0.00,,,0.00,meteohub,2013-01-25 11:57:00,
2013-01-25 07:02:00,4.8,-11.9,28.52,NE,45,8.0,10.0,45,0.00,,,0.00,meteohub,2013-01-25 12:02:00,
2013-01-25 07:07:00,4.8,-11.9,28.52,NE,45,8.0,11.0,45,0.00,,,0.00,meteohub,2013-01-25 12:07:00,
2013-01-25 07:12:00,4.8,-11.9,28.52,NE,45,7.0,11.0,45,0.00,,,0.00,meteohub,2013-01-25 12:12:00,
2013-01-25 07:17:00,5.0,-12.6,28.52,NNE,23,8.0,11.0,43,0.00,,,0.00,meteohub,2013-01-25 12:17:00,
2013-01-25 07:22:00,5.0,-12.1,28.53,NNW,338,4.0,10.0,44,0.00,,,0.00,meteohub,2013-01-25 12:22:00,
2013-01-25 07:27:00,5.0,-12.1,28.53,NE,45,5.0,10.0,44,0.00,,,0.00,meteohub,2013-01-25 12:27:00,
2013-01-25 07:32:00,5.0,-12.6,28.53,North,0,5.0,10.0,43,0.00,,,0.00,meteohub,2013-01-25 12:32:00,
2013-01-25 07:37:00,5.0,-12.6,28.53,East,90,4.0,8.0,43,0.00,,,0.00,meteohub,2013-01-25 12:37:00,
2013-01-25 07:42:00,5.2,-12.5,28.53,NW,315,6.0,8.0,43,0.00,,,0.00,meteohub,2013-01-25 12:42:00,
2013-01-25 07:47:00,5.2,-12.5,28.53,North,0,2.0,8.0,43,0.00,,,0.00,meteohub,2013-01-25 12:47:00,
2013-01-25 07:52:00,5.4,-12.3,28.53,NE,45,4.0,7.0,43,0.00,,,0.00,meteohub,2013-01-25 12:52:00,
2013-01-25 07:57:00,5.4,-12.3,28.53,North,0,2.0,7.0,43,0.00,,,0.00,meteohub,2013-01-25 12:57:00,
2013-01-25 08:02:00,5.5,-12.1,28.53,North,0,2.0,7.0,43,0.00,,,0.00,meteohub,2013-01-25 13:02:00,
2013-01-25 08:07:00,5.5,-12.1,28.53,NW,315,3.0,5.0,43,0.00,,,0.00,meteohub,2013-01-25 13:07:00,
2013-01-25 08:12:00,5.7,-11.9,28.53,NW,315,2.0,4.0,43,0.00,,,0.00,meteohub,2013-01-25 13:12:00,
2013-01-25 08:17:00,5.9,-11.7,28.53,NW,315,4.0,4.0,43,0.00,,,0.00,meteohub,2013-01-25 13:17:00,
2013-01-25 08:22:00,6.1,-11.6,28.53,North,0,6.0,6.0,43,0.00,,,0.00,meteohub,2013-01-25 13:22:00,
2013-01-25 08:27:00,6.3,-11.9,28.53,North,0,5.0,6.0,42,0.00,,,0.00,meteohub,2013-01-25 13:27:00,
2013-01-25 08:32:00,6.3,-11.9,28.53,North,0,9.0,9.0,42,0.00,,,0.00,meteohub,2013-01-25 13:32:00,
2013-01-25 08:37:00,6.6,-12.1,28.53,NW,315,6.0,9.0,41,0.00,,,0.00,meteohub,2013-01-25 13:37:00,
2013-01-25 08:42:00,6.8,-12.5,28.54,North,0,7.0,9.0,40,0.00,,,0.00,meteohub,2013-01-25 13:42:00,
2013-01-25 08:47:00,7.2,-12.1,28.53,North,0,8.0,9.0,40,0.00,,,0.00,meteohub,2013-01-25 13:47:00,
2013-01-25 08:52:00,7.2,-12.1,28.53,NW,315,6.0,9.0,40,0.00,,,0.00,meteohub,2013-01-25 13:52:00,
2013-01-25 08:57:00,7.5,-12.3,28.54,NNE,23,8.0,10.0,39,0.00,,,0.00,meteohub,2013-01-25 13:57:00,
2013-01-25 09:02:00,8.1,-11.7,28.53,North,0,7.0,10.0,39,0.00,,,0.00,meteohub,2013-01-25 14:02:00,
2013-01-25 09:07:00,8.2,-12.1,28.53,North,0,12.0,12.0,38,0.00,,,0.00,meteohub,2013-01-25 14:07:00,
2013-01-25 09:12:00,8.2,-14.4,28.52,NNW,338,7.0,12.0,34,0.00,,,0.00,meteohub,2013-01-25 14:12:00,
2013-01-25 09:17:00,8.6,-15.2,28.52,North,0,4.0,12.0,32,0.00,,,0.00,meteohub,2013-01-25 14:17:00,
2013-01-25 09:22:00,9.0,-15.5,28.52,NE,45,8.0,12.0,31,0.00,,,0.00,meteohub,2013-01-25 14:22:00,
2013-01-25 09:27:00,9.0,-16.2,28.53,NE,45,5.0,10.0,30,0.00,,,0.00,meteohub,2013-01-25 14:27:00,
2013-01-25 09:32:00,9.3,-15.9,28.53,North,0,9.0,9.0,30,0.00,,,0.00,meteohub,2013-01-25 14:32:00,
2013-01-25 09:37:00,9.1,-16.6,28.53,North,0,5.0,9.0,29,0.00,,,0.00,meteohub,2013-01-25 14:37:00,
2013-01-25 09:42:00,9.3,-16.6,28.53,NW,315,8.0,9.0,29,0.00,,,0.00,meteohub,2013-01-25 14:42:00,
2013-01-25 09:47:00,9.5,-16.4,28.52,North,0,6.0,9.0,29,0.00,,,0.00,meteohub,2013-01-25 14:47:00,
2013-01-25 09:52:00,9.5,-17.1,28.53,NW,315,6.0,8.0,28,0.00,,,0.00,meteohub,2013-01-25 14:52:00,
2013-01-25 09:57:00,9.7,-17.0,28.53,NNW,338,8.0,8.0,28,0.00,,,0.00,meteohub,2013-01-25 14:57:00,
2013-01-25 10:02:00,10.4,-13.7,28.53,North,0,4.0,8.0,32,0.00,,,0.00,meteohub,2013-01-25 15:02:00,
2013-01-25 10:07:00,10.2,-17.9,28.52,North,0,11.0,11.0,26,0.00,,,0.00,meteohub,2013-01-25 15:07:00,
2013-01-25 10:12:00,10.4,-15.5,28.52,North,0,2.0,11.0,29,0.00,,,0.00,meteohub,2013-01-25 15:12:00,
2013-01-25 10:17:00,10.8,-15.3,28.52,North,0,4.0,11.0,29,0.00,,,0.00,meteohub,2013-01-25 15:17:00,
2013-01-25 10:22:00,11.3,-15.5,28.52,West,270,1.0,11.0,28,0.00,,,0.00,meteohub,2013-01-25 15:22:00,
2013-01-25 10:27:00,12.0,-14.1,28.52,NW,315,7.0,8.0,29,0.00,,,0.00,meteohub,2013-01-25 15:27:00,
2013-01-25 10:32:00,11.7,-16.6,28.52,NE,45,4.0,8.0,26,0.00,,,0.00,meteohub,2013-01-25 15:32:00,
2013-01-25 10:37:00,11.7,-15.9,28.51,North,0,6.0,8.0,27,0.00,,,0.00,meteohub,2013-01-25 15:37:00,
2013-01-25 10:43:00,11.8,-16.4,28.51,WNW,293,7.0,8.0,26,0.00,,,0.00,meteohub,2013-01-25 15:43:00,
2013-01-25 10:48:00,12.4,-16.8,28.51,West,270,2.0,8.0,25,0.00,,,0.00,meteohub,2013-01-25 15:48:00,
2013-01-25 10:53:00,13.3,-16.1,28.51,North,0,4.0,8.0,25,0.00,,,0.00,meteohub,2013-01-25 15:53:00,
2013-01-25 10:58:00,13.1,-17.0,28.51,NW,315,6.0,9.0,24,0.00,,,0.00,meteohub,2013-01-25 15:58:00,
2013-01-25 11:03:00,13.3,-16.8,28.50,North,0,4.0,9.0,24,0.00,,,0.00,meteohub,2013-01-25 16:03:00,
2013-01-25 11:08:00,13.5,-16.6,28.49,NNE,23,5.0,9.0,24,0.00,,,0.00,meteohub,2013-01-25 16:08:00,
2013-01-25 11:13:00,13.5,-17.5,28.48,NW,315,5.0,11.0,23,0.00,,,0.00,meteohub,2013-01-25 16:13:00,
2013-01-25 11:18:00,13.8,-17.1,28.49,NW,315,4.0,11.0,23,0.00,,,0.00,meteohub,2013-01-25 16:18:00,
2013-01-25 11:24:00,13.6,-18.2,28.48,North,0,4.0,11.0,22,0.00,,,0.00,meteohub,2013-01-25 16:24:00,
2013-01-25 11:29:00,14.0,-18.8,28.48,NW,315,5.0,8.0,21,0.00,,,0.00,meteohub,2013-01-25 16:29:00,
2013-01-25 11:34:00,14.2,-19.5,28.47,North,0,8.0,8.0,20,0.00,,,0.00,meteohub,2013-01-25 16:34:00,
2013-01-25 11:39:00,14.2,-19.5,28.47,NNW,338,7.0,8.0,20,0.00,,,0.00,meteohub,2013-01-25 16:39:00,
2013-01-25 11:44:00,14.0,-19.7,28.47,North,0,6.0,8.0,20,0.00,,,0.00,meteohub,2013-01-25 16:44:00,
2013-01-25 11:49:00,14.0,-19.7,28.46,NW,315,5.0,8.0,20,0.00,,,0.00,meteohub,2013-01-25 16:49:00,
2013-01-25 11:54:00,14.2,-19.5,28.46,NW,315,5.0,8.0,20,0.00,,,0.00,meteohub,2013-01-25 16:54:00,
2013-01-25 11:59:00,14.4,-19.5,28.45,WNW,293,6.0,8.0,20,0.00,,,0.00,meteohub,2013-01-25 16:59:00,
2013-01-25 12:04:00,14.4,-19.5,28.45,NW,315,8.0,8.0,20,0.00,,,0.00,meteohub,2013-01-25 17:04:00,
2013-01-25 12:09:00,14.4,-20.4,28.44,North,0,7.0,8.0,19,0.00,,,0.00,meteohub,2013-01-25 17:09:00,
2013-01-25 12:15:00,14.7,-19.1,28.43,NW,315,4.0,9.0,20,0.00,,,0.00,meteohub,2013-01-25 17:15:00,
2013-01-25 12:20:00,14.7,-23.4,28.43,North,0,4.0,9.0,16,0.00,,,0.00,meteohub,2013-01-25 17:20:00,
2013-01-25 12:25:00,15.3,-18.6,28.42,North,0,6.0,9.0,20,0.00,,,0.00,meteohub,2013-01-25 17:25:00,
2013-01-25 12:30:00,15.6,-18.4,28.42,NNW,338,6.0,9.0,20,0.00,,,0.00,meteohub,2013-01-25 17:30:00,
2013-01-25 12:35:00,15.4,-20.6,28.42,NNW,338,4.0,9.0,18,0.00,,,0.00,meteohub,2013-01-25 17:35:00,
2013-01-25 12:40:00,15.6,-18.4,28.41,NE,45,4.0,8.0,20,0.00,,,0.00,meteohub,2013-01-25 17:40:00,
2013-01-25 12:45:00,16.2,-18.9,28.41,West,270,2.0,7.0,19,0.00,,,0.00,meteohub,2013-01-25 17:45:00,
2013-01-25 12:50:00,16.5,-18.6,28.41,North,0,3.0,7.0,19,0.00,,,0.00,meteohub,2013-01-25 17:50:00,
2013-01-25 12:55:00,16.5,-18.6,28.41,NE,45,3.0,7.0,19,0.00,,,0.00,meteohub,2013-01-25 17:55:00,
2013-01-25 13:00:00,16.5,-19.7,28.40,North,0,2.0,7.0,18,0.00,,,0.00,meteohub,2013-01-25 18:00:00,
2013-01-25 13:05:00,16.9,-18.2,28.40,NW,315,4.0,4.0,19,0.00,,,0.00,meteohub,2013-01-25 18:05:00,
2013-01-25 13:11:00,17.1,-18.0,28.39,North,0,4.0,4.0,19,0.00,,,0.00,meteohub,2013-01-25 18:11:00,
2013-01-25 13:16:00,16.9,-19.3,28.38,North,0,3.0,4.0,18,0.00,,,0.00,meteohub,2013-01-25 18:16:00,
2013-01-25 13:21:00,16.9,-19.3,28.39,NW,315,3.0,4.0,18,0.00,,,0.00,meteohub,2013-01-25 18:21:00,
2013-01-25 13:26:00,17.2,-18.9,28.38,West,270,2.0,4.0,18,0.00,,,0.00,meteohub,2013-01-25 18:26:00,
2013-01-25 13:31:00,17.8,-18.6,28.38,NE,45,1.0,4.0,18,0.00,,,0.00,meteohub,2013-01-25 18:31:00,
2013-01-25 13:36:00,18.3,-18.0,28.38,West,270,3.0,4.0,18,0.00,,,0.00,meteohub,2013-01-25 18:36:00,
2013-01-25 13:41:00,18.3,-19.3,28.37,NW,315,2.0,4.0,17,0.00,,,0.00,meteohub,2013-01-25 18:41:00,
2013-01-25 13:46:00,18.3,-18.0,28.38,North,0,4.0,4.0,18,0.00,,,0.00,meteohub,2013-01-25 18:46:00,
2013-01-25 13:51:00,18.0,-18.4,28.37,North,0,3.0,4.0,18,0.00,,,0.00,meteohub,2013-01-25 18:51:00,
2013-01-25 13:56:00,17.6,-19.8,28.37,North,0,4.0,4.0,17,0.00,,,0.00,meteohub,2013-01-25 18:56:00,
2013-01-25 14:01:00,18.0,-18.4,28.37,North,0,3.0,4.0,18,0.00,,,0.00,meteohub,2013-01-25 19:01:00,
2013-01-25 14:07:00,18.0,-18.4,28.36,North,0,2.0,4.0,18,0.00,,,0.00,meteohub,2013-01-25 19:07:00,
2013-01-25 14:12:00,18.1,-19.3,28.36,SW,225,2.0,4.0,17,0.00,,,0.00,meteohub,2013-01-25 19:12:00,
2013-01-25 14:17:00,18.7,-17.9,28.36,West,270,2.0,3.0,18,0.00,,,0.00,meteohub,2013-01-25 19:17:00,
2013-01-25 14:22:00,18.9,-18.8,28.36,West,270,3.0,3.0,17,0.00,,,0.00,meteohub,2013-01-25 19:22:00,
2013-01-25 14:27:00,18.9,-18.8,28.35,East,90,2.0,4.0,17,0.00,,,0.00,meteohub,2013-01-25 19:27:00,
2013-01-25 14:32:00,19.0,-17.5,28.35,North,0,3.0,4.0,18,0.00,,,0.00,meteohub,2013-01-25 19:32:00,
2013-01-25 14:37:00,18.9,-17.7,28.35,North,0,1.0,4.0,18,0.00,,,0.00,meteohub,2013-01-25 19:37:00,
2013-01-25 14:42:00,18.9,-17.7,28.34,West,270,2.0,3.0,18,0.00,,,0.00,meteohub,2013-01-25 19:42:00,
2013-01-25 14:47:00,18.9,-17.7,28.34,NE,45,2.0,3.0,18,0.00,,,0.00,meteohub,2013-01-25 19:47:00,
2013-01-25 14:52:00,19.0,-17.5,28.34,SW,225,2.0,3.0,18,0.00,,,0.00,meteohub,2013-01-25 19:52:00,
2013-01-25 14:57:00,19.0,-16.4,28.34,South,180,4.0,8.0,19,0.00,,,0.00,meteohub,2013-01-25 19:57:00,
2013-01-25 15:02:00,18.7,-14.8,28.34,South,180,4.0,8.0,21,0.00,,,0.00,meteohub,2013-01-25 20:02:00,
2013-01-25 15:07:00,18.5,-14.1,28.34,SW,225,3.0,8.0,22,0.00,,,0.00,meteohub,2013-01-25 20:07:00,
2013-01-25 15:12:00,18.0,-13.5,28.34,SSE,158,5.0,8.0,23,0.00,,,0.00,meteohub,2013-01-25 20:12:00,
2013-01-25 15:17:00,17.8,-13.7,28.34,SW,225,4.0,7.0,23,0.00,,,0.00,meteohub,2013-01-25 20:17:00,
2013-01-25 15:22:00,17.6,-13.0,28.34,South,180,4.0,7.0,24,0.00,,,0.00,meteohub,2013-01-25 20:22:00,
2013-01-25 15:27:00,17.6,-13.0,28.34,ESE,113,4.0,7.0,24,0.00,,,0.00,meteohub,2013-01-25 20:27:00,
2013-01-25 15:32:00,17.4,-12.5,28.34,East,90,2.0,6.0,25,0.00,,,0.00,meteohub,2013-01-25 20:32:00,
2013-01-25 15:37:00,17.4,-12.5,28.34,South,180,3.0,7.0,25,0.00,,,0.00,meteohub,2013-01-25 20:37:00,
2013-01-25 15:42:00,17.2,-11.0,28.34,SE,135,3.0,7.0,27,0.00,,,0.00,meteohub,2013-01-25 20:42:00,
2013-01-25 15:47:00,17.2,-10.3,28.34,South,180,4.0,7.0,28,0.00,,,0.00,meteohub,2013-01-25 20:47:00,
2013-01-25 15:52:00,16.9,-9.9,28.34,South,180,6.0,7.0,29,0.00,,,0.00,meteohub,2013-01-25 20:52:00,
2013-01-25 15:57:00,16.5,-10.1,28.34,SE,135,6.0,7.0,29,0.00,,,0.00,meteohub,2013-01-25 20:57:00,
2013-01-25 16:02:00,16.3,-9.8,28.34,South,180,6.0,8.0,30,0.00,,,0.00,meteohub,2013-01-25 21:02:00,
2013-01-25 16:07:00,16.3,-9.0,28.33,SE,135,4.0,8.0,31,0.00,,,0.00,meteohub,2013-01-25 21:07:00,
2013-01-25 16:12:00,16.2,-8.5,28.33,South,180,6.0,8.0,32,0.00,,,0.00,meteohub,2013-01-25 21:12:00,
2013-01-25 16:17:00,15.8,-8.9,28.33,SE,135,6.0,8.0,32,0.00,,,0.00,meteohub,2013-01-25 21:17:00,
2013-01-25 16:22:00,15.6,-7.8,28.33,SE,135,4.0,7.0,34,0.00,,,0.00,meteohub,2013-01-25 21:22:00,
2013-01-25 16:27:00,15.4,-8.0,28.33,SSE,158,2.0,7.0,34,0.00,,,0.00,meteohub,2013-01-25 21:27:00,
2013-01-25 16:32:00,15.4,-7.4,28.32,South,180,5.0,6.0,35,0.00,,,0.00,meteohub,2013-01-25 21:32:00,
2013-01-25 16:37:00,15.3,-7.4,28.32,SSE,158,4.0,8.0,35,0.00,,,0.00,meteohub,2013-01-25 21:37:00,
2013-01-25 16:42:00,15.1,-7.1,28.32,SSE,158,6.0,8.0,36,0.00,,,0.00,meteohub,2013-01-25 21:42:00,
2013-01-25 16:47:00,15.1,-7.1,28.31,SE,135,4.0,8.0,36,0.00,,,0.00,meteohub,2013-01-25 21:47:00,
2013-01-25 16:52:00,14.9,-6.7,28.32,SW,225,2.0,8.0,37,0.00,,,0.00,meteohub,2013-01-25 21:52:00,
2013-01-25 16:57:00,14.7,-6.3,28.31,South,180,9.0,10.0,38,0.00,,,0.00,meteohub,2013-01-25 21:57:00,
2013-01-25 17:02:00,14.4,-6.2,28.32,SSE,158,8.0,10.0,39,0.00,,,0.00,meteohub,2013-01-25 22:02:00,
2013-01-25 17:07:00,14.4,-5.6,28.31,South,180,4.0,10.0,40,0.00,,,0.00,meteohub,2013-01-25 22:07:00,
2013-01-25 17:12:00,14.2,-5.8,28.31,South,180,5.0,10.0,40,0.00,,,0.00,meteohub,2013-01-25 22:12:00,
2013-01-25 17:17:00,14.0,-5.8,28.31,SE,135,2.0,8.0,40,0.00,,,0.00,meteohub,2013-01-25 22:17:00,
2013-01-25 17:22:00,14.0,-5.8,28.30,East,90,3.0,6.0,40,0.00,,,0.00,meteohub,2013-01-25 22:22:00,
2013-01-25 17:27:00,14.0,-5.8,28.30,SE,135,5.0,7.0,40,0.00,,,0.00,meteohub,2013-01-25 22:27:00,
2013-01-25 17:32:00,13.8,-5.1,28.30,SE,135,4.0,7.0,42,0.00,,,0.00,meteohub,2013-01-25 22:32:00,
2013-01-25 17:37:00,13.8,-5.1,28.30,SE,135,3.0,7.0,42,0.00,,,0.00,meteohub,2013-01-25 22:37:00,
2013-01-25 17:42:00,13.8,-5.1,28.30,South,180,3.0,6.0,42,0.00,,,0.00,meteohub,2013-01-25 22:42:00,
2013-01-25 17:47:00,13.8,-5.1,28.30,SE,135,4.0,6.0,42,0.00,,,0.00,meteohub,2013-01-25 22:47:00,
2013-01-25 17:53:00,13.6,-5.3,28.30,South,180,4.0,11.0,42,0.00,,,0.00,meteohub,2013-01-25 22:53:00,
2013-01-25 17:58:00,13.6,-5.3,28.29,South,180,3.0,11.0,42,0.00,,,0.00,meteohub,2013-01-25 22:58:00,
2013-01-25 18:03:00,13.6,-5.3,28.29,South,180,6.0,11.0,42,0.00,,,0.00,meteohub,2013-01-25 23:03:00,
2013-01-25 18:08:00,13.3,-5.1,28.29,SSW,203,4.0,6.0,43,0.00,,,0.00,meteohub,2013-01-25 23:08:00,
2013-01-25 18:13:00,13.1,-5.3,28.29,South,180,4.0,7.0,43,0.00,,,0.00,meteohub,2013-01-25 23:13:00,
2013-01-25 18:18:00,12.9,-4.9,28.29,SE,135,7.0,8.0,44,0.00,,,0.00,meteohub,2013-01-25 23:18:00,
2013-01-25 18:23:00,12.7,-4.5,28.28,East,90,7.0,8.0,45,0.00,,,0.00,meteohub,2013-01-25 23:23:00,
2013-01-25 18:28:00,12.7,-4.5,28.28,South,180,4.0,11.0,45,0.00,,,0.00,meteohub,2013-01-25 23:28:00,
2013-01-25 18:33:00,12.7,-4.2,28.28,South,180,5.0,11.0,46,0.00,,,0.00,meteohub,2013-01-25 23:33:00,
2013-01-25 18:38:00,12.7,-4.2,28.28,ESE,113,6.0,11.0,46,0.00,,,0.00,meteohub,2013-01-25 23:38:00,
2013-01-25 18:43:00,12.7,-3.6,28.28,South,180,9.0,9.0,47,0.00,,,0.00,meteohub,2013-01-25 23:43:00,
2013-01-25 18:48:00,12.7,-3.3,28.28,South,180,5.0,9.0,48,0.00,,,0.00,meteohub,2013-01-25 23:48:00,
2013-01-25 18:54:00,12.7,-2.4,28.28,South,180,3.0,9.0,50,0.00,,,0.00,meteohub,2013-01-25 23:54:00,
2013-01-25 18:59:00,12.7,-2.0,28.28,South,180,3.0,9.0,51,0.00,,,0.00,meteohub,2013-01-25 23:59:00,
2013-01-25 19:04:00,12.9,-1.5,28.27,ESE,113,4.0,7.0,52,0.00,,,0.00,meteohub,2013-01-26 00:04:00,
2013-01-25 19:09:00,12.9,-1.5,28.27,SE,135,4.0,6.0,52,0.00,,,0.00,meteohub,2013-01-26 00:09:00,
2013-01-25 19:14:00,12.9,-0.9,28.27,SE,135,3.0,6.0,53,0.00,,,0.00,meteohub,2013-01-26 00:14:00,
2013-01-25 19:19:00,12.9,-0.9,28.27,SE,135,7.0,8.0,53,0.00,,,0.00,meteohub,2013-01-26 00:19:00,
2013-01-25 19:24:00,12.7,-0.8,28.26,South,180,4.0,8.0,54,0.00,,,0.00,meteohub,2013-01-26 00:24:00,
2013-01-25 19:29:00,12.7,-0.4,28.26,SE,135,4.0,8.0,55,0.00,,,0.00,meteohub,2013-01-26 00:29:00,
2013-01-25 19:34:00,12.6,-0.6,28.26,SE,135,3.0,8.0,55,0.00,,,0.00,meteohub,2013-01-26 00:34:00,
2013-01-25 19:39:00,12.4,-0.4,28.25,East,90,3.0,6.0,56,0.00,,,0.00,meteohub,2013-01-26 00:39:00,
2013-01-25 19:44:00,12.2,-0.6,28.26,SSE,158,4.0,8.0,56,0.00,,,0.00,meteohub,2013-01-26 00:44:00,
2013-01-25 19:50:00,12.0,0.1,28.25,South,180,3.0,8.0,58,0.00,,,0.00,meteohub,2013-01-26 00:50:00,
2013-01-25 19:55:00,11.8,0.0,28.26,SW,225,2.0,10.0,58,0.00,,,0.00,meteohub,2013-01-26 00:55:00,
2013-01-25 20:00:00,12.2,0.3,28.25,SSE,158,2.0,10.0,58,0.00,,,0.00,meteohub,2013-01-26 01:00:00,
2013-01-25 20:05:00,12.2,0.3,28.25,SW,225,5.0,10.0,58,0.00,,,0.00,meteohub,2013-01-26 01:05:00,
2013-01-25 20:10:00,12.2,0.3,28.25,North,0,2.0,5.0,58,0.00,,,0.00,meteohub,2013-01-26 01:10:00,
2013-01-25 20:15:00,12.2,0.3,28.25,South,180,3.0,6.0,58,0.00,,,0.00,meteohub,2013-01-26 01:15:00,
2013-01-25 20:20:00,12.2,0.3,28.25,SE,135,3.0,6.0,58,0.00,,,0.00,meteohub,2013-01-26 01:20:00,
2013-01-25 20:25:00,12.2,0.3,28.25,South,180,2.0,4.0,58,0.00,,,0.00,meteohub,2013-01-26 01:25:00,
2013-01-25 20:30:00,12.2,0.3,28.25,SW,225,4.0,4.0,58,0.00,,,0.00,meteohub,2013-01-26 01:30:00,
2013-01-25 20:35:00,12.2,0.3,28.24,SSE,158,3.0,7.0,58,0.00,,,0.00,meteohub,2013-01-26 01:35:00,
2013-01-25 20:40:00,12.2,0.0,28.25,SE,135,2.0,7.0,57,0.00,,,0.00,meteohub,2013-01-26 01:40:00,
2013-01-25 20:45:00,12.2,0.0,28.24,SE,135,2.0,7.0,57,0.00,,,0.00,meteohub,2013-01-26 01:45:00,
2013-01-25 20:50:00,12.2,0.0,28.24,North,0,2.0,4.0,57,0.00,,,0.00,meteohub,2013-01-26 01:50:00,
2013-01-25 20:56:00,12.2,0.0,28.25,East,90,4.0,4.0,57,0.00,,,0.00,meteohub,2013-01-26 01:56:00,
2013-01-25 21:01:00,12.0,0.1,28.24,ENE,68,4.0,4.0,58,0.00,,,0.00,meteohub,2013-01-26 02:01:00,
2013-01-25 21:06:00,12.0,0.1,28.24,South,180,2.0,6.0,58,0.00,,,0.00,meteohub,2013-01-26 02:06:00,
2013-01-25 21:11:00,11.8,0.0,28.24,SE,135,3.0,6.0,58,0.00,,,0.00,meteohub,2013-01-26 02:11:00,
2013-01-25 21:16:00,11.8,0.0,28.24,East,90,2.0,6.0,58,0.00,,,0.00,meteohub,2013-01-26 02:16:00,
2013-01-25 21:21:00,11.7,-0.2,28.24,East,90,3.0,3.0,58,0.00,,,0.00,meteohub,2013-01-26 02:21:00,
2013-01-25 21:26:00,11.7,-0.2,28.24,East,90,3.0,4.0,58,0.00,,,0.00,meteohub,2013-01-26 02:26:00,
2013-01-25 21:31:00,11.8,-0.4,28.24,East,90,2.0,4.0,57,0.00,,,0.00,meteohub,2013-01-26 02:31:00,
2013-01-25 21:36:00,11.8,-0.4,28.24,NE,45,2.0,4.0,57,0.00,,,0.00,meteohub,2013-01-26 02:36:00,
2013-01-25 21:41:00,11.7,-0.6,28.24,SE,135,3.0,3.0,57,0.00,,,0.00,meteohub,2013-01-26 02:41:00,
2013-01-25 21:47:00,11.7,-0.6,28.24,South,180,2.0,4.0,57,0.00,,,0.00,meteohub,2013-01-26 02:47:00,
2013-01-25 21:52:00,11.5,-0.8,28.25,ENE,68,2.0,4.0,57,0.00,,,0.00,meteohub,2013-01-26 02:52:00,
2013-01-25 21:57:00,11.3,-0.9,28.25,South,180,1.0,4.0,57,0.00,,,0.00,meteohub,2013-01-26 02:57:00,
2013-01-25 22:02:00,11.1,-1.1,28.24,NE,45,2.0,2.0,57,0.00,,,0.00,meteohub,2013-01-26 03:02:00,
2013-01-25 22:07:00,11.1,-1.1,28.25,NE,45,0.0,2.0,57,0.00,,,0.00,meteohub,2013-01-26 03:07:00,
2013-01-25 22:12:00,10.9,-1.3,28.24,NE,45,0.0,2.0,57,0.00,,,0.00,meteohub,2013-01-26 03:12:00,
2013-01-25 22:17:00,10.6,-1.7,28.24,SW,225,2.0,2.0,57,0.00,,,0.00,meteohub,2013-01-26 03:17:00,
2013-01-25 22:22:00,10.8,-1.5,28.25,SW,225,0.0,2.0,57,0.00,,,0.00,meteohub,2013-01-26 03:22:00,
2013-01-25 22:27:00,10.6,-1.7,28.24,SW,225,0.0,2.0,57,0.00,,,0.00,meteohub,2013-01-26 03:27:00,
2013-01-25 22:32:00,10.6,-1.7,28.24,SW,225,0.0,2.0,57,0.00,,,0.00,meteohub,2013-01-26 03:32:00,
2013-01-25 22:37:00,10.6,-1.3,28.24,SW,225,0.0,0.0,58,0.00,,,0.00,meteohub,2013-01-26 03:37:00,
2013-01-25 22:42:00,10.4,-1.5,28.24,SW,225,0.0,0.0,58,0.00,,,0.00,meteohub,2013-01-26 03:42:00,
2013-01-25 22:47:00,10.4,-1.5,28.24,SW,225,0.0,0.0,58,0.00,,,0.00,meteohub,2013-01-26 03:47:00,
2013-01-25 22:52:00,10.4,-1.5,28.23,SW,225,1.0,1.0,58,0.00,,,0.00,meteohub,2013-01-26 03:52:00,
2013-01-25 22:57:00,10.4,-1.5,28.23,SE,135,1.0,1.0,58,0.00,,,0.00,meteohub,2013-01-26 03:57:00,
2013-01-25 23:02:00,10.4,-1.1,28.23,South,180,1.0,2.0,59,0.00,,,0.00,meteohub,2013-01-26 04:02:00,
2013-01-25 23:07:00,10.2,-2.7,28.24,South,180,0.0,2.0,55,0.00,,,0.00,meteohub,2013-01-26 04:07:00,
2013-01-25 23:12:00,10.2,-2.7,28.23,South,180,0.0,2.0,55,0.00,,,0.00,meteohub,2013-01-26 04:12:00,
2013-01-25 23:17:00,10.2,-2.7,28.23,SE,135,2.0,2.0,55,0.00,,,0.00,meteohub,2013-01-26 04:17:00,
2013-01-25 23:22:00,10.2,-2.4,28.23,South,180,2.0,2.0,56,0.00,,,0.00,meteohub,2013-01-26 04:22:00,
2013-01-25 23:27:00,10.4,-0.4,28.23,South,180,2.0,2.0,61,0.00,,,0.00,meteohub,2013-01-26 04:27:00,
2013-01-25 23:32:00,10.4,-0.4,28.23,East,90,2.0,2.0,61,0.00,,,0.00,meteohub,2013-01-26 04:32:00,
2013-01-25 23:37:00,10.4,0.0,28.24,East,90,0.0,2.0,62,0.00,,,0.00,meteohub,2013-01-26 04:37:00,
2013-01-25 23:42:00,10.4,0.0,28.23,East,90,0.0,2.0,62,0.00,,,0.00,meteohub,2013-01-26 04:42:00,
2013-01-25 23:47:00,10.4,0.0,28.23,NE,45,2.0,2.0,62,0.00,,,0.00,meteohub,2013-01-26 04:47:00,
2013-01-25 23:52:00,10.6,0.1,28.23,East,90,2.0,2.0,62,0.00,,,0.00,meteohub,2013-01-26 04:52:00,
2013-01-25 23:57:00,10.6,0.1,28.23,NE,45,2.0,2.0,62,0.00,,,0.00,meteohub,2013-01-26 04:57:00,